Weather in Vatnavolok

Russia / Republic of Karelia     62°18′19″N   34°35′34″E
temp.,
°C
wind,
m/s
gust,
m/s
humid.,
%
clouds,
%
prec.,
mm/h
press.,
hPa
HPBL,
m
3 march, wed
wed300:00−7wnw39910 0.0 1011197
03:00−7w310940 0.0 1011254
06:00−2wnw4109383 0.0 1008555
09:00−2wnw5119192 0.0 1007604
12:00−1w499287 0.0 1005462
15:00−1w5109393 1.3 1002797
18:00−2wsw4997100 0.4 997609
21:00−1wnw41195100 3.1 995952
4 march, thu
thu400:00−2n61295100 1.6 994775
03:00−6nnw51291100 2.4 997484
06:00−10nnw389580 0.0 998192
09:00−11nnw379551 0.0 1000192
12:00−7nw369314 0.0 1000347
15:00−5nw369047 0.0 1001620
18:00−8nnw239597 0.1 100169
21:00−10nw249688 0.1 100195
5 march, fri
fri500:00−11wnw269656 0.1 1002160
03:00−9nw499476 0.3 1003407
06:00−13n3109394 0.2 1005309
09:00−16nnw389457 0.2 1007237
12:00−11nnw36919 0.0 1009408
15:00−9nw369154 0.1 1011680
18:00−12nw239391 0.1 101174
21:00−15nw239448 0.1 101320
6 march, sat
sat600:00−15wnw129725 0.0 101320
03:00−17w119930 0.0 101420
06:00−16w229860 0.0 101320
09:00−15wsw249640 0.0 1012133
12:00−9wsw259437 0.0 1010288
15:00−7ssw478729 0.0 1007674
18:00−8s4109095 0.0 1002584
21:00−7s6129498 0.7 995898
7 march, sun
sun700:00−6sse71394100 1.1 988919
03:00−6se71395100 2.9 983708
06:00−5sse4895100 3.6 982563
09:00−11ssw369498 3.9 983236
12:00−8n1290100 0.0 987373
15:00−8nne5992100 0.4 991777
18:00−10nne61191100 0.3 996782
21:00−11nne61291100 0.7 1000882